[[{"header":{"parameterUnit":"m.s-1","parameterCategory":1,"la1":30.2991,"la2":30.254,"lo1":-89.0895,"lo2":-89.0444,"dx":0.0017,"dy":0.0017,"nx":28,"ny":28,"refTime":"2022-12-13T09:00:00:Z","depth":0,"parameterNumber":2,"parameterNumberName":"U-component_of_WINDS"},"data":[0,0,0,0,0,0,0,0,0,0,0,0,0,0,0,0,0,0,0,0,0,0,0,0,0,0,0,0,0,0,0,0,0,0,0,0,0,0,0,0,0,0,0,0,0,0,0,0,0,0,0,0,0,0,0,0,0,0,-2.7991,-2.7995,0,-2.8286,-2.8289,-2.8292,-2.8436,-2.8436,-2.8436,-2.8436,-2.8746,-2.8754,-2.8762,0,0,0,0,0,0,0,0,0,0,0,0,0,-2.7563,-2.757,-2.7991,-2.7995,-2.7998,-2.8285,-2.8289,-2.8293,-2.8436,-2.8436,-2.8436,-2.8436,-2.8743,-2.8753,-2.8763,0,0,0,0,0,0,0,0,0,0,0,0,0,-2.7792,-2.7572,-2.799,-2.8104,-2.8117,-2.8284,-2.8289,-2.8294,-2.8436,-2.8436,-2.8436,-2.8436,-2.874,-2.8752,-2.8764,-2.8842,0,0,-2.8802,-2.8807,0,0,0,0,0,0,0,0,-2.7779,-2.7808,-2.8084,-2.8097,-2.8112,-2.8324,-2.8252,-2.8478,-2.8436,-2.8316,-2.8436,-2.8436,-2.8606,-2.8629,-2.8685,-2.8857,-2.887,-2.8803,-2.8811,-2.8816,-2.8819,0,0,0,0,0,0,0,-2.7763,-2.7796,-2.8108,-2.8088,-2.8105,-2.8144,-2.8176,-2.8295,-2.8458,-2.8326,-2.8337,-2.837,-2.8614,-2.8673,-2.8693,-2.8874,-2.8803,-2.8814,-2.8821,-2.8826,-2.9129,-2.9129,0,0,0,0,0,0,-2.7727,-2.7782,-2.8099,-2.8117,-2.7941,-2.8151,-2.8188,-2.8256,-2.8457,-2.8487,-2.8369,-2.8375,-2.8651,-2.8679,-2.8705,-2.8811,-2.8816,-2.8827,-2.8835,-2.9128,-2.9129,-2.9129,0,0,0,0,0,0,-2.7717,-2.7754,-2.8087,-2.7952,-2.7998,-2.8159,-2.8234,-2.8262,-2.8321,-2.849,-2.852,-2.8399,-2.8652,-2.8687,-2.8807,-2.8824,-2.8833,-2.8844,-2.9127,-2.9128,-2.9129,-2.9023,0,0,0,0,0,0,-2.7704,-2.775,-2.7779,-2.7952,-2.8004,-2.8181,-2.8235,-2.8268,-2.8341,-2.8352,-2.8526,-2.8554,-2.8655,-2.8788,-2.8819,-2.8841,-2.8854,-2.9127,-2.9128,-2.9129,-2.9025,-2.902,-2.9015,0,0,0,0,0,-2.7689,-2.7738,-2.7779,-2.7817,-2.8043,-2.8181,-2.8212,-2.8324,-2.8342,-2.8374,-2.8483,-2.8549,-2.8817,-2.8799,-2.8836,-2.8861,-2.9126,-2.9127,-2.9129,-2.9028,-2.9021,-2.9015,0,0,0,0,0,0,-2.7566,-2.7763,-2.7811,-2.7917,-2.8031,-2.8205,-2.8249,-2.8313,-2.8426,-2.8432,-2.8569,-2.8607,-2.8715,-2.8801,-2.8777,-2.8949,-2.8978,-2.8987,-2.8889,-2.8884,-2.8878,-2.8856,-2.8864,0,0,0,0,0,-2.755,-2.7643,-2.7812,-2.789,-2.7944,-2.8086,-2.8151,-2.8227,-2.8352,-2.8402,-2.8519,-2.864,-2.8752,-2.8823,-2.8935,-2.9039,-2.908,-2.9075,-2.907,-2.9065,-2.9071,-2.9135,-2.9135,-2.9134,-2.9134,-2.9134,0,0,-2.7521,-2.764,-2.7691,-2.7868,-2.7965,-2.8061,-2.8126,-2.8224,-2.8298,-2.8418,-2.8537,-2.8628,-2.8773,-2.8885,-2.894,-2.8959,-2.908,-2.9066,-2.9061,-2.907,-2.9136,-2.9136,-2.9136,-2.9134,-2.9134,-2.9134,0,0,-2.7516,-2.7614,-2.769,-2.7786,-2.7932,-2.8026,-2.8044,-2.821,-2.8274,-2.8395,-2.8488,-2.8579,-2.8768,-2.8868,-2.8943,-2.8977,-2.9043,-2.901,-2.8983,-2.9043,-2.9043,-2.9044,-2.9058,-2.9061,-2.9015,-2.9015,-2.9015,0,-2.7461,-2.7606,-2.7722,-2.7815,-2.7892,-2.8003,-2.8083,-2.8171,-2.8347,-2.8399,-2.8417,-2.8657,-2.8763,-2.8901,-2.8909,-2.8966,-2.8993,-2.899,-2.9033,-2.9035,-2.9038,-2.9053,-2.9057,-2.901,-2.9011,-2.9011,-2.9012,0,-2.7533,-2.7632,-2.7677,-2.784,-2.7922,-2.8008,-2.8141,-2.821,-2.828,-2.8374,-2.8498,-2.8628,-2.8769,-2.8808,-2.8878,-2.8957,-2.8965,-2.9006,-2.9038,-2.9031,-2.9047,-2.9054,-2.9003,-2.9005,-2.9006,-2.9008,0,0,-2.7457,-2.7684,-2.7699,-2.7775,-2.7945,-2.8026,-2.8118,-2.8254,-2.8311,-2.843,-2.8513,-2.8671,-2.8711,-2.8796,-2.8879,-2.8932,-2.8953,-2.8969,-2.8974,-2.8962,-2.9051,-2.9018,-2.9023,-2.8998,-2.9,-2.9001,-2.9039,0,-2.7476,-2.7643,-2.7751,-2.7877,-2.7972,-2.8079,-2.8161,-2.8275,-2.8366,-2.8462,-2.8564,-2.8674,-2.8718,-2.877,-2.8827,-2.8938,-2.8973,-2.8937,-2.908,-2.9083,-2.904,-2.9031,-2.8997,-2.9026,-2.9046,-2.9047,-2.9048,0,-2.752,-2.7632,-2.7766,-2.7926,-2.797,-2.804,-2.8174,-2.8264,-2.8398,-2.8461,-2.8556,-2.864,-2.8746,-2.8769,-2.8919,-2.8892,-2.8958,-2.9021,-2.9025,-2.9043,-2.9065,-2.905,-2.9038,-2.9043,-2.9059,-2.9058,-2.9057,0,-2.7452,-2.7638,-2.7742,-2.7804,-2.7993,-2.8041,-2.8122,-2.8256,-2.8331,-2.8449,-2.85,-2.863,-2.8702,-2.8802,-2.8921,-2.8926,-2.906,-2.9092,-2.9117,-2.9114,-2.914,-2.9137,-2.914,-2.9181,-2.9181,-2.9181,-2.9181,0,-2.7462,-2.754,-2.7714,-2.7778,-2.787,-2.7995,-2.8084,-2.8176,-2.8293,-2.838,-2.8483,-2.8563,-2.8714,-2.8814,-2.8908,-2.9019,-2.9051,-2.9107,-2.9131,-2.9098,-2.909,-2.9142,-2.9144,-2.9182,-2.9182,-2.9182,-2.9182,0,-2.7401,-2.7521,-2.7642,-2.781,-2.7855,-2.7915,-2.8062,-2.8131,-2.8227,-2.8335,-2.8368,-2.8521,-2.8644,-2.8772,-2.8939,-2.9003,-2.9111,-2.9144,-2.9064,-2.9078,-2.9096,-2.9093,-2.9133,-2.9146,-2.9176,-2.9176,-2.9175,0,-2.7399,-2.7461,-2.7636,-2.77,-2.7778,-2.788,-2.7957,-2.8084,-2.8161,-2.8318,-2.8369,-2.8499,-2.8609,-2.8801,-2.893,-2.9059,-2.9097,-2.9102,-2.9117,-2.9082,-2.9099,-2.9093,-2.9101,-2.9097,-2.9096,-2.9095,-2.9094,0,-2.7384,-2.744,-2.7544,-2.767,-2.7757,-2.7864,-2.7974,-2.8022,-2.8172,-2.8253,-2.8378,-2.8464,-2.8634,-2.8763,-2.8908,-2.8998,-2.9072,-2.9088,-2.9101,-2.9068,-2.9019,-2.9047,-2.9051,-2.9087,-2.9088,-2.9088,-2.9089,-2.9089,-2.7353,-2.7414,-2.7546,-2.766,-2.7756,-2.7857,-2.7929,-2.8034,-2.814,-2.8286,-2.8357,-2.8482,-2.8619,-2.8821,-2.8908,-2.9012,-2.9033,-2.9051,-2.9056,-2.9059,-2.9051,-2.9002,-2.9039,-2.9039,-2.904,-2.904,-2.904,0,-2.7343,-2.7434,-2.7537,-2.7686,-2.7777,-2.7836,-2.7962,-2.8035,-2.8143,-2.8262,-2.8368,-2.8514,-2.864,-2.8778,-2.8914,-2.8971,-2.9008,-2.9002,-2.8999,-2.9019,-2.9023,-2.8999,-2.8969,-2.8969,-2.8969,-2.8969,-2.8969,-2.8969,-2.7348,-2.7454,-2.7526,-2.7682,-2.7774,-2.7895,-2.7962,-2.8058,-2.8153,-2.831,-2.8414,-2.8502,-2.8631,-2.8777,-2.8897,-2.8935,-2.8981,-2.8964,-2.9012,-2.9013,-2.9019,-2.9024,-2.9002,-2.8973,-2.8973,-2.9,-2.9,-2.9]},{"header":{"parameterUnit":"m.s-1","parameterCategory":1,"la1":30.2991,"la2":30.254,"lo1":-89.0895,"lo2":-89.0444,"dx":0.0017,"dy":0.0017,"nx":28,"ny":28,"refTime":"2022-12-13T09:00:00:Z","depth":0,"parameterNumber":3,"parameterNumberName":"V-component_of_WINDS"},"data":[0,0,0,0,0,0,0,0,0,0,0,0,0,0,0,0,0,0,0,0,0,0,0,0,0,0,0,0,0,0,0,0,0,0,0,0,0,0,0,0,0,0,0,0,0,0,0,0,0,0,0,0,0,0,0,0,0,0,2.835,2.8352,0,2.8488,2.849,2.8491,2.8479,2.8477,2.8474,2.8472,2.8625,2.8631,2.8637,0,0,0,0,0,0,0,0,0,0,0,0,0,2.8091,2.8096,2.835,2.8352,2.8354,2.8488,2.849,2.8492,2.8479,2.8476,2.8474,2.8471,2.8623,2.863,2.8638,0,0,0,0,0,0,0,0,0,0,0,0,0,2.8214,2.8098,2.835,2.8363,2.8366,2.8487,2.849,2.8492,2.848,2.8476,2.8473,2.847,2.8621,2.863,2.8639,2.876,0,0,2.8667,2.8671,0,0,0,0,0,0,0,0,2.8207,2.8224,2.836,2.8363,2.8366,2.8463,2.8454,2.8582,2.848,2.8437,2.8472,2.8469,2.8575,2.8587,2.8621,2.8767,2.8773,2.8667,2.8673,2.8677,2.8679,0,0,0,0,0,0,0,2.8199,2.8218,2.8405,2.8362,2.8366,2.8367,2.8381,2.8479,2.8523,2.844,2.844,2.8456,2.8576,2.8612,2.8624,2.8776,2.8667,2.8675,2.8681,2.8684,2.9036,2.904,0,0,0,0,0,0,2.8185,2.8211,2.8401,2.8409,2.8276,2.8375,2.839,2.8435,2.8521,2.8531,2.8458,2.8454,2.8598,2.8613,2.8629,2.8782,2.8677,2.8685,2.8691,2.9032,2.9037,2.9041,0,0,0,0,0,0,2.818,2.8202,2.8395,2.831,2.8335,2.8382,2.8433,2.8439,2.8475,2.8535,2.8544,2.8486,2.8596,2.8617,2.8728,2.8787,2.8689,2.8698,2.9027,2.9033,2.9039,2.9085,0,0,0,0,0,0,2.8172,2.82,2.8243,2.8311,2.8339,2.8487,2.8436,2.8444,2.849,2.8486,2.8563,2.8573,2.8595,2.8715,2.8737,2.8798,2.8705,2.9023,2.903,2.9037,2.9078,2.9091,2.9102,0,0,0,0,0,2.8163,2.8251,2.8245,2.8268,2.8393,2.849,2.8507,2.8527,2.8494,2.8541,2.858,2.8571,2.8776,2.8726,2.8751,2.8816,2.9019,2.9028,2.9036,2.9073,2.9089,2.9102,0,0,0,0,0,0,2.8192,2.826,2.8254,2.8366,2.8422,2.8488,2.8547,2.8542,2.8612,2.8607,2.8632,2.865,2.8764,2.88,2.8743,2.8941,2.8894,2.8908,2.8913,2.8929,2.894,2.8931,2.8712,0,0,0,0,0,2.8211,2.828,2.8338,2.8431,2.846,2.8498,2.8542,2.8552,2.8613,2.8638,2.8685,2.8748,2.8828,2.8879,2.8955,2.9082,2.9103,2.914,2.9152,2.9161,2.9175,2.9252,2.9271,2.9069,2.9069,2.9069,0,0,2.8252,2.8298,2.8341,2.8439,2.8483,2.856,2.8519,2.86,2.8659,2.8652,2.876,2.8797,2.887,2.8992,2.9048,2.9026,2.9235,2.9172,2.918,2.9188,2.9263,2.9282,2.9299,2.9075,2.9074,2.9073,0,0,2.8367,2.8405,2.849,2.8536,2.8604,2.8629,2.865,2.8717,2.8741,2.8849,2.8847,2.892,2.9054,2.9108,2.9153,2.9292,2.929,2.9317,2.9382,2.9457,2.9473,2.9487,2.9544,2.9563,2.9329,2.9329,2.9329,0,2.8411,2.8521,2.8536,2.8619,2.8666,2.8659,2.8749,2.8794,2.8885,2.892,2.8892,2.9064,2.9112,2.925,2.9284,2.9319,2.9349,2.931,2.9468,2.9483,2.9497,2.9551,2.9571,2.9332,2.9332,2.9332,2.9331,0,2.8575,2.8653,2.8714,2.8799,2.8852,2.8938,2.8971,2.9024,2.9031,2.9061,2.9176,2.9234,2.9324,2.9357,2.9364,2.9498,2.9483,2.9462,2.9416,2.9519,2.9571,2.9591,2.9337,2.9336,2.9335,2.9334,0,0,2.8713,2.8806,2.8829,2.887,2.8945,2.9009,2.9098,2.9182,2.9231,2.9294,2.9374,2.9489,2.9472,2.9523,2.9537,2.9602,2.9718,2.9575,2.9577,2.9605,2.9876,2.9895,2.9918,2.9714,2.9718,2.9721,2.9872,0,2.884,2.8992,2.901,2.9149,2.9225,2.9221,2.93,2.9358,2.939,2.9463,2.95,2.9584,2.955,2.9583,2.9646,2.969,2.9774,2.9679,2.9796,2.98,2.9783,2.9944,2.9964,3.0103,2.9892,2.9895,2.9897,0,2.9007,2.9074,2.922,2.929,2.9322,2.9392,2.9475,2.9542,2.9611,2.963,2.9689,2.9696,2.9795,2.9742,2.9882,2.9817,2.9867,2.9896,2.9902,2.9918,2.9858,2.997,3.0147,3.017,2.9928,2.9926,2.9924,0,2.9101,2.9227,2.9332,2.9367,2.9449,2.9499,2.9537,2.9601,2.9653,2.9727,2.9763,2.9847,2.9896,2.9964,2.9997,2.9954,3.0138,3.0086,3.0163,3.0163,3.0206,3.0203,3.0399,3.0228,3.0228,3.0227,3.0227,0,2.9244,2.9335,2.9376,2.9441,2.9545,2.9566,2.9671,2.9707,2.9766,2.9843,2.9845,2.9918,2.9954,3.0035,3.0061,3.0178,3.0198,3.0221,3.0229,3.0224,3.0222,3.0261,3.0254,3.0233,3.0232,3.0231,3.023,0,2.9367,2.9397,2.9513,2.9581,2.9601,2.9675,2.9737,2.9804,2.9834,2.9932,2.9957,3.0008,3.0103,3.0141,3.0258,3.0277,3.0413,3.041,3.0389,3.0393,3.047,3.0465,3.0701,3.0736,3.0537,3.0539,3.054,0,2.9458,2.9528,2.9604,2.9654,2.9693,2.9773,2.9826,2.9851,2.9908,2.9993,3.0052,3.0146,3.0223,3.0377,3.0429,3.052,3.0523,3.0599,3.0537,3.0533,3.0532,3.053,3.054,3.0613,3.0615,3.0616,3.0618,0,2.962,2.9632,2.9706,2.9787,2.9849,2.9915,2.9979,3.0021,3.0058,3.0122,3.0218,3.0277,3.0397,3.0494,3.0589,3.0634,3.0636,3.0636,3.066,3.0659,3.0647,3.0662,3.0427,3.0632,3.063,3.0629,3.0629,3.0628,2.9735,2.9799,2.9863,2.9948,2.9998,3.0059,3.0126,3.0166,3.0245,3.0342,3.0353,3.0459,3.0532,3.0659,3.0708,3.0795,3.0776,3.0809,3.0818,3.0828,3.0836,3.0629,3.0812,3.0812,3.0811,3.0811,3.0811,0,2.9902,2.9943,3.002,3.0109,3.0177,3.0166,3.0238,3.0298,3.0389,3.0455,3.053,3.0645,3.074,3.0798,3.0895,3.0954,3.0958,3.098,3.0979,3.0991,3.0844,3.0817,3.0976,3.0976,3.0976,3.0976,3.0976,3.0976,2.9997,3.0107,3.0127,3.0265,3.0307,3.0408,3.0451,3.051,3.0563,3.0689,3.0766,3.0802,3.0869,3.0971,3.106,3.1075,3.1114,3.1138,3.1154,3.1017,3.1,3.0984,3.0959,3.1145,3.1145,3.1294,3.1295,3.1296]}]]